Roanoke Regional Airport Airport (ROA)

 

Airport Diagram
Current Weather/Forecast (VFR Conditions)
METAR KROA 281754Z 23016G23KT 10SM BKN049 OVC060 07/M04 A2994 RMK AO2 SLP144 T00671044 10067 20006 58012
TAF KROA 281743Z 2818/2918 25015G25KT P6SM -RASN OVC040 TEMPO 2818/2822 5SM -RASN OVC030 FM282200 25017G32KT P6SM -RASN VCSH BKN035 FM290400 26015G25KT P6SM -SHSN BKN030 FM291000 27020G35KT P6SM -SHSN BKN025

All Charts
General
Chart Name Download
AIRPORT DIAGRAM
TAKEOFF MINIMUMS
ALTERNATE MINIMUMS
HOT SPOT

Departures
Chart Name Download
BUFIY THREE (RNAV)
DIXXY EIGHT
HOKEE THREE
MONAT THREE (RNAV)
SCUTA THREE (RNAV)

Approaches
Chart Name Download
ILS OR LOC RWY 34
RNAV (RNP) Z RWY 06
RNAV (RNP) Z RWY 24
RNAV (RNP) Z RWY 34
RNAV (GPS) Y RWY 06
RNAV (GPS) Y RWY 24
RNAV (GPS) Y RWY 34
LDA Y RWY 06
LDA Z RWY 06
VOR/DME-A


Inbound Traffic (Arrivals)

No inbound traffic.


Outbound Traffic (Departures)

No outbound traffic.